Location: Unspecified
(0.0000°N, 0.0000°E)
Time: 15:20:10
(UTC+00:00)

ISS - Pass Details

Date: 17 May 2022
Orbit: 414 x 421 km, 51.6° (Epoch: 20 May)

Event Time Altitude Azimuth Distance (km) Brightness Sun altitude
Rises 04:41:17 0° 332° (NNW) 2,333 0.0 -17.7°
Reaches altitude 10° 04:43:24 10° 337° (NNW) 1,475 -1.0 -17.2°
Maximum altitude 04:46:37 51° 54° (NE) 524 -2.9 -16.4°
Drops below altitude 10° 04:49:53 10° 132° (SE) 1,485 -0.6 -15.7°
Sets 04:52:00 0° 137° (SE) 2,351 0.4 -15.2°
